Regional Weather Roundup
Issued by NWS Cleveland, OH

Home | Current Version | Previous Version | Text Only | Print | Product List | Glossary Off
Versions: 1 2 3 4 5 6 7 8 9 10 11 12 13 14 15 16 17 18 19 20 21 22 23 24 25 26 27 28 29 30 31 32 33 34 35 36 37 38 39 40 41 42 43 44 45 46 47 48 49 50

088
ASUS41 KCLE 240610
RWRCLE
OHIO REGIONAL WEATHER ROUNDUP
NATIONAL WEATHER SERVICE CLEVELAND, OH
200 AM EDT TUE APR 24 2018

NOTE: "FAIR" INDICATES FEW OR NO CLOUDS BELOW 12,000 FEET WITH NO
SIGNIFICANT WEATHER AND/OR OBSTRUCTIONS TO VISIBILITY.

OHZ001>008-015>018-024>027-034-035-043-044-240700-
   NORTHWEST OHIO

CITY           SKY/WX    TMP DP  RH WIND       PRES   REMARKS
DEFIANCE       CLOUDY    53  47  79 E6        30.11F
FINDLAY        CLOUDY    57  44  62 SE13      30.09F
TOLEDO EXPRESS CLOUDY    55  47  74 E5        30.12F
TOLEDO EXEC    CLOUDY    56  45  66 E5        30.13F
LIMA           CLOUDY    53  47  79 SE14G23   30.08F
$$

OHZ009>014-019>023-028>033-038-089-240700-
   NORTHEAST OHIO

CITY           SKY/WX    TMP DP  RH WIND       PRES   REMARKS
CLE-HOPKINS    CLOUDY    57  45  64 E5        30.18F
CLE-LAKEFRONT  CLOUDY    50  43  77 NE7       30.15F
CUY CO. ARPT   NOT AVBL
LORAIN-ELYRIA  CLOUDY    53  42  66 NE7       30.15F
ASHTABULA      FAIR      55  44  66 N3        30.19F
AKRON-CANTON   CLOUDY    57  39  51 E6        30.16F
WOOSTER        CLOUDY    53  43  68 SE5       30.15F
MANSFIELD      MOCLDY    56  43  61 SE14      30.13F
YOUNGSTOWN     LGT RAIN  58  39  49 S3        30.18F
$$

OHZ042-051>053-060>062-070>072-077>081-240700-
  SOUTHWEST OHIO

CITY           SKY/WX    TMP DP  RH WIND       PRES   REMARKS
CINC-COVINGTON CLOUDY    52  48  86 E9        30.00F
CINC-LUNKEN    CLOUDY    54  50  86 NE5       30.02F
HAMILTON       CLOUDY    53  49  86 E8        30.03F
DAYTON         CLOUDY    52  50  93 E14       30.06F
WRIGHT-PAT AFB CLOUDY    53  47  82 E8        30.05F
DAYTON GENERAL CLOUDY    53  47  79 E10       30.03F
WILMINGTON     CLOUDY    50  49  96 E10       30.03F
$$

OHZ036-037-039>041-045>050-054>059-063>069-073>076-082>088-240700-
  CENTRAL AND SOUTHEAST OHIO

CITY           SKY/WX    TMP DP  RH WIND       PRES   REMARKS
COLUMBUS       CLOUDY    54  47  77 E12       30.10F
OSU AIRPORT    CLOUDY    52  48  86 E12       30.09F
BOLTON FIELD   CLOUDY    52  48  86 E9        30.09F
RICKENBACK AFB CLOUDY    52  49  87 E13       30.08F
NEWARK         LGT RAIN  55  47  74 E6        30.11F
MARION         CLOUDY    55  45  68 SE16G23   30.11F
LANCASTER      CLOUDY    53  48  83 E9        30.10F
ZANESVILLE     CLOUDY    56  46  69 E8        30.13F
NEW PHILLY     CLOUDY    58  42  55 SE10      30.16S
$$




USA.gov is the U.S. government's official web portal to all federal, state and local government web resources and services.